Regional Weather Roundup
Issued by NWS Charleston, SC

Current Version | Previous Version | Graphics & Text | Print | Product List | Glossary On
Versions: 1 2 3 4 5 6 7 8 9 10 11 12 13 14 15 16 17 18 19 20 21 22 23 24 25 26 27 28 29 30 31 32 33 34 35 36 37 38 39 40 41 42 43 44 45 46 47 48 49 50
000 ASUS42 KCHS 302112 RWRCHS REGIONAL WEATHER ROUNDUP NATIONAL WEATHER SERVICE CHARLESTON SC 500 PM EDT TUE JUN 30 2015 NOTE: "FAIR" INDICATES FEW OR NO CLOUDS BELOW 12,000 FEET WITH NO SIGNIFICANT WEATHER AND/OR OBSTRUCTIONS TO VISIBILITY. NOT ALL STATIONS ARE QUALITY CONTROLLED BY THE NATIONAL WEATHER SERVICE. USE DATA WITH CAUTION...ESPECIALLY DEWPOINT OBSERVATIONS. SCZ027-030-031-034>040-042>050-302200- ...SOUTHEAST SOUTH CAROLINA... CITY SKY/WX TMP DP RH WIND PRES REMARKS N CHARLESTON PTSUNNY 87 71 58 SW17G28 29.97R HX 93 WATERFRONT PAR N/A 83 76 79 S15 29.94S HX 91 MOUNT PLEASANT LGT RAIN 88 73 62 S18G25 29.98R HX 96 JOHNS ISLAND FAIR 86 75 70 S17G25 29.98R HX 95 PINOPOLIS NOT AVBL MONCKS CORNER MOCLDY 90 72 55 SW15G23 29.95R HX 96 SUMMERVILLE FAIR 88 73 62 S13G20 29.97R HX 96 BEAUFORT MCAS CLOUDY 87 76 69 S10G18 29.98R HX 97 BEAUFORT ARPT FAIR 84 77 79 S14G21 29.98R HX 94 HILTON HEAD IS MOSUNNY 82 75 78 S9G17 30.00R WALTERBORO MOCLDY 88 72 58 S18 29.97R HX 94 ALLENDALE CLOUDY 77 68 73 NW8G21 29.99R THUNDER ...SOUTHERN MIDLANDS AND PEE DEE... CITY SKY/WX TMP DP RH WIND PRES REMARKS GEORGETOWN NOT AVBL KINGSTREE NOT AVBL ORANGEBURG PTSUNNY 89 64 43 SW15 29.94R HX 90 BARNWELL TSTM 72 70 94 SW5 30.04R AIKEN NOT AVBL MANNING FAIR N/A N/A N/A S9G17 29.92S COLUMBIA TSTM 70 68 93 W26G44 29.99R VSB 1 SUMTER MOSUNNY 91 66 43 S13 29.89S HX 93 FLORENCE PTSUNNY 93 67 42 S15 29.90S HX 96 MYRTLE BEACH SUNNY 88 73 62 S15G26 29.96S HX 96 N MYRTLE BEACH MOSUNNY 86 74 67 S18 29.95R HX 94 $$ GAZ063-065-086>088-099>101-113>116-118-119-134>141-150-302200- ...SOUTHEAST GEORGIA... CITY SKY/WX TMP DP RH WIND PRES REMARKS SAVANNAH ARPT CLOUDY 87 69 54 SW18G26 29.99R HX 91 HUNTER AAF CLOUDY 87 73 63 SW18G25 29.97S HX 95 FORT STEWART CLOUDY 83 72 69 W15 29.99S STATESBORO TSTM 73 70 91 W18G31 30.06R SYLVANIA CLOUDY 80 69 70 NW26 30.02R CLAXTON LGT RAIN 72 70 94 NW8G18 30.04R ...CSRA...CENTRAL AND FAR SOUTHEAST GEORGIA... CITY SKY/WX TMP DP RH WIND PRES REMARKS THOMSON CLOUDY 76 74 94 E3 30.01F AUGUSTA-BUSH LGT RAIN 74 70 87 SE9 30.00R FOG AUGUSTA-DANIEL LGT RAIN 73 69 87 N9 30.00S SWAINSBORO RAIN N/A N/A N/A S5 30.01F VIDALIA TSTM 73 70 88 SW6 30.04R EASTMAN FAIR 74 74 100 S6 30.04S HAZLEHURST FAIR 73 73 100 S5 30.03F ALMA CLOUDY 71 68 90 S6 30.03F WAYCROSS LGT RAIN 76 74 95 CALM 30.05S JESUP LGT RAIN 77 73 88 W7 30.06R BAXLEY RAIN 72 68 88 S8G16 30.02F BRUNSWICK CLOUDY 77 73 88 SW8 30.04F SAINT SIMONS LGT RAIN 75 70 84 SW9 30.04S $$ SCZ027-028-034-036>038-045-046-048>050-GAZ119-141-302200- ...LAKE AND SUPPLEMENTAL COASTAL OBSERVATIONS... STATION/POSITION TIME TEMP WIND PRES WAVE SWELL AIR SEA DIR/SP/G HT/PER HT/PER/DIR (UTC) (F) (DEG/KT/KT) (MB) (FT/S) (FT/S/D) UPR LAKE MARION NOT AVBL WINYAH BAY 1945 87 180/ 12 1013.0 LAKE MURRAY 2000 86 280/ 19/ 25 1012.2R ACE BASIN NERRS NOT AVBL FORT PULASKI 2000 84 85 160/ 9/ 15 1015.9R SAPELO ISLAND 2000 79 220/ 17 1017.0R $$ ANZ835-935-AMZ111-154-330-350-352-354-370-450-454-472-302200- ...C-MAN AND BUOY OBSERVATIONS... STATION/POSITION TIME TEMP WIND PRES WAVE SWELL AIR SEA DIR/SP/G HT/PER HT/PER/DIR (UTC) (F) (DEG/KT/KT) (MB) (FT/S) (FT/S/D) BUOY 41004 2050 82 83 200/ 16/ 19 1014.9F 3/ 7 2/ 7 BUOY 41008 2050 80 80 240/ 16/ 17 1016.0F 2/ 5 2/120/ 8 FOLLY BEACH CMAN 2000 82 190/ 18/ 21 1015.3S CAPERS NEARSHORE 2008 81 200/ 19/ 25 1015.2F FRIPP NEARSHORE 2000 82 190/ 17/ 19 1014.8F STATION/POSITION TIME TEMP WIND PRES WAVE SWELL AIR SEA DIR/SP/G HT/PER HT/PER/DIR (UTC) (F) (DEG/KT/KT) (MB) (FT/S) (FT/S/D) 5E ST. MARYS GA 2021 79 N/A 2/ 8 FRYING PAN BUOY 2050 83 81 200/ 16/ 17 1014.7F 3/ 5 2/130/ 8 BUOY 41025 2050 82 83 200/ 17/ 19 1013.6F 3/ 7 2/120/ 7 CAPE LOOKOUT NC 2000 83 200/ 14/ 17 1013.9F BUOY 41002 2050 80 80 220/ 14/ 16 1017.4F 6/ 7 5/170/ 7 BUOY 41010 2020 83 84 230/ 10/ 12 1018.8F ST AUGUSTINE FL 2100 71 74 350/ 7/ 8 1019.5R $$

USA.gov is the U.S. government's official web portal to all federal, state and local government web resources and services.